Previsão horária em Ploskow

Hoje, 27 Fevereiro, Sábado

Tempo Temperatura Precipitação Vento Pressão Humidade
00:00 +1°C° 0 mm 5 m/s 758 mmHg 90%
01:00 +1°C° 0 mm 5 m/s 758 mmHg 91%
02:00 +1°C° 0 mm 5 m/s 758 mmHg 91%
03:00 +1°C° 0 mm 5 m/s 758 mmHg 91%
04:00 +1°C° 0 mm 5 m/s 759 mmHg 91%
05:00 0°C° 0 mm 4 m/s 759 mmHg 92%
06:00 0°C° 0 mm 4 m/s 760 mmHg 93%
07:00 -1°C° 0 mm 4 m/s 760 mmHg 94%
08:00 0°C° 0 mm 4 m/s 760 mmHg 88%
09:00 +3°C° 0 mm 4 m/s 761 mmHg 83%
10:00 +4°C° 0 mm 4 m/s 761 mmHg 78%
11:00 +5°C° 0 mm 5 m/s 762 mmHg 73%
12:00 +6°C° 0 mm 5 m/s 762 mmHg 69%
13:00 +7°C° 0 mm 5 m/s 763 mmHg 64%
14:00 +6°C° 0 mm 5 m/s 763 mmHg 64%
15:00 +6°C° 0 mm 4 m/s 763 mmHg 64%
16:00 +6°C° 0 mm 4 m/s 763 mmHg 64%
17:00 +4°C° 0 mm 3 m/s 763 mmHg 70%
18:00 +3°C° 0 mm 3 m/s 763 mmHg 76%
19:00 +1°C° 0 mm 3 m/s 763 mmHg 83%
20:00 +1°C° 0 mm 3 m/s 763 mmHg 85%
21:00 0°C° 0 mm 3 m/s 763 mmHg 87%
22:00 +1°C° 0 mm 2 m/s 763 mmHg 89%
23:00 +1°C° 0 mm 2 m/s 763 mmHg 87%

Amanhã, 28 Fevereiro, Domingo

Tempo Temperatura Precipitação Vento Pressão Humidade
00:00 +1°C° 0 mm 2 m/s 763 mmHg 86%
01:00 +1°C° 0 mm 2 m/s 763 mmHg 85%
02:00 0°C° 0 mm 3 m/s 763 mmHg 88%
03:00 0°C° 0 mm 3 m/s 763 mmHg 90%
04:00 0°C° 0 mm 3 m/s 762 mmHg 93%
05:00 0°C° 0 mm 3 m/s 762 mmHg 94%
06:00 0°C° 0 mm 3 m/s 762 mmHg 96%
07:00 +1°C° 0 mm 3 m/s 762 mmHg 97%
08:00 0°C° 0 mm 4 m/s 762 mmHg 96%
09:00 0°C° 0 mm 4 m/s 762 mmHg 95%
10:00 +1°C° 0 mm 4 m/s 762 mmHg 95%
11:00 +1°C° 0 mm 4 m/s 762 mmHg 92%
12:00 +3°C° 0 mm 4 m/s 762 mmHg 90%
13:00 +3°C° 0 mm 4 m/s 763 mmHg 88%
14:00 +4°C° 0 mm 4 m/s 762 mmHg 86%
15:00 +4°C° 0 mm 3 m/s 762 mmHg 84%
16:00 +4°C° 0 mm 3 m/s 762 mmHg 82%
17:00 +3°C° 0 mm 3 m/s 762 mmHg 86%
18:00 +3°C° 0 mm 2 m/s 763 mmHg 89%
19:00 +2°C° 0 mm 2 m/s 763 mmHg 92%
20:00 +2°C° 0 mm 2 m/s 763 mmHg 92%
21:00 +1°C° 0 mm 2 m/s 763 mmHg 91%
22:00 +1°C° 0 mm 2 m/s 763 mmHg 91%
23:00 +1°C° 0 mm 2 m/s 764 mmHg 90%

Depois de amanhã, 1 Março, Segunda-feira

Tempo Temperatura Precipitação Vento Pressão Humidade
00:00 +1°C° 0 mm 2 m/s 764 mmHg 88%
01:00 +1°C° 0 mm 2 m/s 764 mmHg 87%
02:00 +1°C° 0 mm 2 m/s 764 mmHg 87%
03:00 +2°C° 0 mm 1 m/s 764 mmHg 86%
04:00 +2°C° 0 mm 1 m/s 764 mmHg 86%
05:00 +2°C° 0 mm 1 m/s 764 mmHg 86%
06:00 +1°C° 0 mm 2 m/s 764 mmHg 87%
07:00 +1°C° 0 mm 2 m/s 764 mmHg 87%
08:00 +3°C° 0 mm 2 m/s 764 mmHg 81%
09:00 +4°C° 0 mm 2 m/s 764 mmHg 75%
10:00 +6°C° 0 mm 2 m/s 764 mmHg 69%
11:00 +7°C° 0 mm 2 m/s 764 mmHg 67%
12:00 +8°C° 0 mm 3 m/s 764 mmHg 65%
13:00 +9°C° 0 mm 3 m/s 764 mmHg 63%
14:00 +9°C° 0 mm 3 m/s 764 mmHg 65%
15:00 +9°C° 0 mm 3 m/s 764 mmHg 68%
16:00 +9°C° 0 mm 3 m/s 763 mmHg 70%
17:00 +7°C° 0 mm 3 m/s 763 mmHg 76%
18:00 +5°C° 0 mm 3 m/s 763 mmHg 81%
19:00 +4°C° 0 mm 3 m/s 763 mmHg 87%
20:00 +3°C° 0 mm 3 m/s 763 mmHg 88%
21:00 +3°C° 0 mm 3 m/s 763 mmHg 89%
22:00 +3°C° 0 mm 3 m/s 763 mmHg 90%
23:00 +2°C° 0 mm 3 m/s 763 mmHg 91%

2 Março, Terça-feira

Tempo Temperatura Precipitação Vento Pressão Humidade
00:00 +2°C° 0 mm 3 m/s 763 mmHg 91%
01:00 +2°C° 0 mm 3 m/s 763 mmHg 92%
02:00 +2°C° 0 mm 3 m/s 763 mmHg 92%
03:00 +1°C° 0 mm 3 m/s 763 mmHg 92%
04:00 +1°C° 0 mm 3 m/s 762 mmHg 92%
05:00 +1°C° 0 mm 3 m/s 762 mmHg 92%
06:00 +1°C° 0 mm 3 m/s 762 mmHg 92%
07:00 0°C° 0 mm 3 m/s 762 mmHg 92%
08:00 +2°C° 0 mm 3 m/s 763 mmHg 86%
09:00 +4°C° 0 mm 3 m/s 763 mmHg 80%
10:00 +5°C° 0 mm 3 m/s 763 mmHg 75%
11:00 +7°C° 0 mm 3 m/s 763 mmHg 70%
12:00 +9°C° 0 mm 3 m/s 763 mmHg 65%
13:00 +10°C° 0 mm 3 m/s 763 mmHg 60%
14:00 +10°C° 0 mm 3 m/s 763 mmHg 61%
15:00 +10°C° 0 mm 2 m/s 763 mmHg 62%
16:00 +10°C° 0 mm 2 m/s 762 mmHg 64%
17:00 +8°C° 0 mm 2 m/s 762 mmHg 70%
18:00 +7°C° 0 mm 2 m/s 762 mmHg 76%
19:00 +5°C° 0 mm 2 m/s 762 mmHg 82%
20:00 +6°C° 0 mm 1 m/s 762 mmHg 84%
21:00 +5°C° 0 mm 1 m/s 762 mmHg 86%
22:00 +4°C° 0 mm 1 m/s 762 mmHg 89%
23:00 +4°C° 0 mm 1 m/s 762 mmHg 89%

3 Março, Quarta-feira

Tempo Temperatura Precipitação Vento Pressão Humidade
00:00 +3°C° 0 mm 1 m/s 762 mmHg 89%
01:00 +2°C° 0 mm 0 m/s 762 mmHg 89%
02:00 +2°C° 0 mm 0 m/s 762 mmHg 89%
03:00 +1°C° 0 mm 0 m/s 762 mmHg 89%
04:00 +1°C° 0 mm 0 m/s 761 mmHg 89%
05:00 +1°C° 0 mm 0 m/s 761 mmHg 88%
06:00 +1°C° 0 mm 0 m/s 761 mmHg 88%
07:00 +1°C° 0 mm 0 m/s 761 mmHg 87%
08:00 +3°C° 0 mm 0 m/s 761 mmHg 81%
09:00 +6°C° 0 mm 1 m/s 761 mmHg 74%
10:00 +7°C° 0 mm 1 m/s 761 mmHg 67%
11:00 +8°C° 0 mm 1 m/s 761 mmHg 63%
12:00 +10°C° 0 mm 1 m/s 761 mmHg 60%
13:00 +11°C° 0 mm 1 m/s 761 mmHg 56%
14:00 +11°C° 0 mm 1 m/s 760 mmHg 58%
15:00 +11°C° 0 mm 1 m/s 760 mmHg 60%
16:00 +11°C° 0 mm 1 m/s 759 mmHg 62%
17:00 +9°C° 0 mm 1 m/s 759 mmHg 68%
18:00 +8°C° 0 mm 1 m/s 758 mmHg 73%
19:00 +6°C° 0 mm 1 m/s 758 mmHg 78%
20:00 +6°C° 0 mm 1 m/s 758 mmHg 80%
21:00 +6°C° 0 mm 1 m/s 757 mmHg 82%
22:00 +4°C° 0 mm 2 m/s 757 mmHg 84%
23:00 +4°C° 0 mm 2 m/s 757 mmHg 85%

4 Março, Quinta-feira

Tempo Temperatura Precipitação Vento Pressão Humidade
00:00 +3°C° 0 mm 2 m/s 756 mmHg 86%
01:00 +3°C° 0 mm 2 m/s 756 mmHg 88%
02:00 +3°C° 0 mm 2 m/s 755 mmHg 89%
03:00 +2°C° 0 mm 2 m/s 755 mmHg 90%
04:00 +2°C° 0 mm 2 m/s 754 mmHg 91%
05:00 +2°C° 0 mm 2 m/s 754 mmHg 92%
06:00 +2°C° 0 mm 2 m/s 753 mmHg 93%
07:00 +2°C° 0 mm 2 m/s 753 mmHg 93%
08:00 +3°C° 0 mm 2 m/s 752 mmHg 89%
09:00 +5°C° 0 mm 2 m/s 752 mmHg 85%
10:00 +6°C° 0 mm 2 m/s 752 mmHg 81%
11:00 +6°C° 0.1 mm 2 m/s 751 mmHg 83%
12:00 +5°C° 0.1 mm 3 m/s 751 mmHg 85%
13:00 +5°C° 0.1 mm 3 m/s 751 mmHg 87%
14:00 +5°C° 0.4 mm 3 m/s 750 mmHg 90%
15:00 +5°C° 0.4 mm 2 m/s 750 mmHg 92%
16:00 +5°C° 0.4 mm 2 m/s 750 mmHg 94%
17:00 +4°C° 0.7 mm 3 m/s 750 mmHg 94%
18:00 +3°C° 0.7 mm 4 m/s 750 mmHg 95%
19:00 +3°C° 0.7 mm 4 m/s 750 mmHg 95%
20:00 +3°C° 0.2 mm 4 m/s 750 mmHg 92%
21:00 +1°C° 0.2 mm 5 m/s 751 mmHg 88%
22:00 0°C° 0.2 mm 5 m/s 751 mmHg 85%
23:00 0°C° 0 mm 4 m/s 752 mmHg 84%
Mostrar mais

Necessitamos do seu Consentimento

A Meteoprog e os seus Fornecedores de Serviços podem armazenar e aceder a dados pessoais como cookies, identificadores do dispositivo ou outras tecnologias semelhantes existentes no seu dispositivo e processar estes dados para personalizar conteúdos e anúncios, assim como funcionalidades nas redes sociais e análise de tráfego.

  • Armazenar e/ou aceder a informações no seu dispositivo

    Os cookies, identificadores do dispositivo ou outras informações podem ser armazenados ou acedidos no seu dispositivo, para os fins acima indicados.

  • Anúncios e conteúdos personalizados, medição de anúncios e conteúdos, dados sobre o público-alvo e desenvolvimento de produtos

    Os anúncios e os conteúdos podem ser personalizados com base num perfil. Podem ser adicionados dados adicionais para uma maior personalização dos anúncios e dos conteúdos. A eficácia dos anúncios e dos conteúdos pode ser medida. Podem ser obtidas informações sobre o público que visualizou os anúncios e os conteúdos. Estes dados podem ser usados para desenvolver ou melhorar sistemas, softwares ou a experiência do utilizador.

Ao clicar em "Eu concordo”, permitirá o uso de cookies, identificadores do dispositivo e web beacons mencionados ou outras tecnologias semelhantes. As configurações do navegador do seu dispositivo podem ser alteradas.

Para certos fins, podem ser invocados interesses legítimos ao invés de consentimento. Pode ler mais informação sobre este assunto na nossa Política de Privacidade e Cookies.